C/2024 A1 ( ATLAS )

Japanese version
Home page
Updated on April 11, 2024

---------------------------------------------------------------------

* Profile

Discovery Date January 3, 2024
Magnitude 18.8 mag
Discoverer Asteroid Terrestrial-Impact Last Alert System (ATLAS) search program

* Pictures

* Orbital Elements

Epoch 2024 Mar. 31.0 TT = JDT 2460400.5
T 2025 June 13.66099 TT                                 Rudenko
q   3.8758738            (2000.0)            P               Q
z  -0.0003492      Peri.  353.29465     -0.38265459     +0.02734425
 +/-0.0000035      Node   112.13835     +0.88720406     -0.26800477
e   1.0013536      Incl.   94.44804     +0.25776815     +0.96302946
>From 161 observations 2024 Jan. 3-Mar. 16, mean residual 0".4.

* Finding Charts

* Magnitudes Graph

        m1 = 6.5 + 5 log d + 10.0 log r

---------------------------------------------------------------------

The orbital elements are published on M.P.E.C. 2024-F34.
The charts are made with StellaNavigator Ver.11 (AstroArts).
The magnitudes graphs are made with Comet for Windows.

---------------------------------------------------------------------

Copyright(C) Seiichi Yoshida (comet@aerith.net). All rights reserved.